This is the latest recevied weather packets stored in our database for station/object VANOK. If no packets are shown the sender has not sent any weather packets the latest 10 day(s).
| Time | Temp. | Humidity | Pressure | Rain* | Wind** | Luminosity | Snow |
|---|---|---|---|---|---|---|---|
| 1777537617 | 7.78° C | 83% | 1023.1 hPa | - | - | - | - |
| 1777536418 | 7.22° C | 86% | 1023.3 hPa | - | - | - | - |
| 1777535218 | 6.67° C | 88% | 1023.2 hPa | - | - | - | - |
| 1777534017 | 6.67° C | 89% | 1023.1 hPa | - | - | - | - |
| 1777532817 | 6.67° C | 90% | 1023.3 hPa | - | - | - | - |
| 1777531617 | 6.11° C | 92% | 1023.3 hPa | - | - | - | - |
| 1777530417 | 5.56° C | 92% | 1023.4 hPa | - | - | - | - |
| 1777529217 | 6.11° C | 92% | 1023.4 hPa | - | - | - | - |
| 1777528017 | 5.56° C | 92% | 1023.5 hPa | - | - | - | - |
| 1777526817 | 5.56° C | 93% | 1023.3 hPa | - | - | - | - |
| 1777525616 | 5.56° C | 93% | 1023.2 hPa | - | - | - | - |
| 1777524417 | 5.56° C | 93% | 1023.1 hPa | - | - | - | - |
| 1777523216 | 5.56° C | 93% | 1022.9 hPa | - | - | - | - |
| 1777522017 | 5.56° C | 93% | 1023 hPa | - | - | - | - |
| 1777520817 | 5° C | 91% | 1023 hPa | - | - | - | - |
| 1777519616 | 5° C | 89% | 1023.2 hPa | - | - | - | - |
| 1777518417 | 5° C | 90% | 1023.4 hPa | - | - | - | - |
| 1777517216 | 4.44° C | 89% | 1023.4 hPa | - | - | - | - |
| 1777516016 | 4.44° C | 91% | 1023.5 hPa | - | - | - | - |
| 1777514816 | 4.44° C | 93% | 1023.6 hPa | - | - | - | - |
| 1777513617 | 4.44° C | 97% | 1023.7 hPa | - | - | - | - |
| 1777512417 | 4.44° C | 98% | 1023.9 hPa | - | - | - | - |
| 1777511216 | 4.44° C | 98% | 1024 hPa | - | - | - | - |
| 1777510016 | 3.89° C | 97% | 1024.3 hPa | - | - | - | - |
| 1777508816 | 3.89° C | 95% | 1024.4 hPa | - | - | - | - |
* Rain since midnight (hover to see other rain measurements)
** Current wind speed in m/s (hover to see current wind gust speed)